Location: Chiroubles
(46.1812°N, 4.6660°E)
Time: 11:03:26
(UTC+00:00)

deb Explorer IX - All Passes

Search period start: 30 November 2020 00:00
Search period end: 10 December 2020 00:00
Orbit: 538 x 1104 km, 38.8° (Epoch: 29 November)

Date Brightness Start Highest point End Pass type
(mag) Time Alt. Az. Time Alt. Az. Time Alt. Az.
30 Nov - 14:20:52 10° S 14:24:32 16° SSE 14:27:58 10° ESE daylight
30 Nov - 16:05:22 10° SW 16:10:49 31° SSE 16:15:33 10° ESE daylight
30 Nov - 17:51:57 10° WSW 17:57:15 38° S 18:01:47 10° ESE visible
30 Nov - 19:39:17 10° WSW 19:43:23 24° SSW 19:47:04 10° SSE visible
01 Dec - 13:57:14 10° S 14:01:09 16° SSE 14:04:49 10° ESE daylight
01 Dec - 15:41:49 10° SW 15:47:27 32° SSE 15:52:24 10° ESE daylight
01 Dec - 17:28:26 10° WSW 17:33:56 39° S 17:38:39 10° ESE visible
01 Dec - 19:15:49 10° WSW 19:20:07 25° SSW 19:23:57 10° SSE visible
02 Dec - 13:33:36 10° S 13:37:45 17° SSE 13:41:39 10° ESE daylight
02 Dec - 15:18:15 10° SW 15:24:06 33° SSE 15:29:13 10° ESE daylight
02 Dec - 17:04:54 10° WSW 17:10:36 40° S 17:15:30 10° ESE visible
02 Dec - 18:52:19 10° WSW 18:56:50 25° SSW 19:00:49 10° SSE visible
03 Dec - 13:09:58 10° S 13:14:20 18° SSE 13:18:27 10° ESE daylight
03 Dec - 14:54:41 10° SW 15:00:42 34° SSE 15:06:01 10° ESE daylight
03 Dec - 16:41:22 10° WSW 16:47:15 41° S 16:52:19 10° ESE visible
03 Dec - 18:28:47 10° WSW 18:33:31 26° SSW 18:37:40 10° SE visible
04 Dec - 12:46:23 10° S 12:50:55 18° SSE 12:55:12 10° ESE daylight
04 Dec - 14:31:07 10° SW 14:37:17 35° SSE 14:42:46 10° ESE daylight
04 Dec - 16:17:48 10° WSW 16:23:53 42° S 16:29:08 10° ESE visible
04 Dec - 18:05:15 10° WSW 18:10:11 27° SSW 18:14:31 10° SE visible
05 Dec - 12:22:47 10° S 12:27:28 19° SSE 12:31:56 10° ESE daylight
05 Dec - 14:07:33 10° SW 14:13:52 36° SSE 14:19:32 10° ESE daylight
05 Dec - 15:54:14 10° WSW 16:00:30 43° S 16:05:55 10° ESE daylight
05 Dec - 17:41:42 10° WSW 17:46:51 28° SSW 17:51:20 10° SE visible
06 Dec - 11:59:12 10° S 12:04:00 19° SSE 12:08:37 10° ESE daylight
06 Dec - 13:43:59 10° SW 13:50:24 37° SSE 13:56:15 10° E daylight
06 Dec - 15:30:41 10° WSW 15:37:05 44° S 15:42:41 10° ESE daylight
06 Dec - 17:18:08 10° W 17:23:28 29° SSW 17:28:09 10° SE visible
07 Dec - 11:35:38 10° S 11:40:32 19° SSE 11:45:17 10° ESE daylight
07 Dec - 13:20:25 10° SW 13:26:57 38° SSE 13:32:57 10° E daylight
07 Dec - 15:07:06 10° WSW 15:13:39 44° S 15:19:26 10° ESE daylight
07 Dec - 16:54:33 10° W 17:00:05 30° SSW 17:04:58 10° SE visible
07 Dec - 18:44:56 10° SW 18:45:47 10° SW 18:46:36 10° SSW visible
08 Dec - 11:12:05 10° SSW 11:17:04 20° SSE 11:21:54 10° ESE daylight
08 Dec - 12:56:52 10° SW 13:03:28 38° SSE 13:09:37 10° E daylight
08 Dec - 14:43:32 10° WSW 14:50:12 45° S 14:56:09 10° ESE daylight
08 Dec - 16:30:59 10° W 16:36:41 30° SSW 16:41:44 10° SE visible
08 Dec - 18:20:56 10° SW 18:22:25 11° SW 18:23:50 10° SSW visible
09 Dec - 10:48:34 10° SSW 10:53:34 20° SSE 10:58:30 10° ESE daylight
09 Dec - 12:33:19 10° SW 12:39:58 39° SSE 12:46:15 10° E daylight
09 Dec - 14:19:57 10° WSW 14:26:44 46° S 14:32:51 10° ESE daylight
09 Dec - 16:07:24 10° W 16:13:16 31° SSW 16:18:29 10° SE daylight
09 Dec - 17:57:06 10° WSW 17:59:01 11° SW 18:00:52 10° SSW visible
